contact:dominique.lefevre@mio.osupytheas.fr, maurice.libes@osupytheas.fr, didier.mallarino@osupytheas.fr
Project:EMSO http://www.emso-fr.org/EMSO-France
Depth: 2436.0 m
Title:EMSO Ligure Ouest : Data MII capteur AQUADOPP
Date,Latitude,Longitude,X_East,Y_North,Z_Up,Amplitude_X,Amplitude_Y,Amplitude_Z,Batterie,SoundSpeed,Heading,Pitch,Roll,Pressure,TIS,Speed,Direction
, degrees North, degrees East, m.s-1, m.s-1,m.s-1, 1, 1, 1, Volt, m.s-1, degree, degree, degree, dbar, degree_C, m.s-1, degree
2022-08-07T00:04:03,42.805,6.029,-0.045,-0.017,-0.007,103.0,102.0,101.0,13.3,1505.2,318.7,-0.8,1.8,2471.008,13.28,0.048,249.3
2022-08-07T00:07:03,42.805,6.029,-0.041,-0.012,-0.019,102.0,102.0,101.0,13.4,1505.2,327.6,-0.7,1.9,2471.002,13.28,0.042,253.7
2022-08-07T00:10:03,42.805,6.029,-0.047,0.001,-0.02,102.0,102.0,102.0,13.4,1505.2,331.5,-0.8,1.8,2470.981,13.28,0.047,271.2
2022-08-07T00:13:03,42.805,6.029,-0.039,-0.015,-0.007,102.0,103.0,101.0,13.4,1505.2,329.6,-0.7,1.8,2470.98,13.28,0.041,249.0
2022-08-07T00:16:03,42.805,6.029,-0.024,0.002,-0.033,104.0,102.0,101.0,13.4,1505.2,327.7,-0.7,1.8,2470.97,13.28,0.024,274.8
2022-08-07T00:19:03,42.805,6.029,-0.054,-0.018,-0.045,102.0,101.0,102.0,13.3,1505.2,326.6,-0.7,1.8,2470.98,13.28,0.056,251.6
2022-08-07T00:22:03,42.805,6.029,-0.039,-0.01,-0.03,103.0,102.0,101.0,13.4,1505.2,322.4,-0.7,1.8,2470.954,13.28,0.04,255.6
2022-08-07T00:25:03,42.805,6.029,-0.062,0.007,-0.003,102.0,102.0,102.0,13.4,1505.2,324.9,-0.8,1.8,2470.965,13.28,0.062,276.4
2022-08-07T00:28:03,42.805,6.029,-0.042,-0.002,-0.03,103.0,102.0,101.0,13.4,1505.2,323.2,-0.7,1.9,2470.962,13.28,0.042,267.3
2022-08-07T00:31:03,42.805,6.029,-0.037,-0.002,-0.042,103.0,103.0,104.0,13.4,1505.2,328.1,-0.8,1.8,2470.961,13.28,0.037,266.9
2022-08-07T00:34:03,42.805,6.029,-0.05,-0.012,-0.012,103.0,103.0,101.0,13.3,1505.2,329.9,-0.8,1.8,2470.959,13.28,0.051,256.5
2022-08-07T00:37:03,42.805,6.029,-0.039,-0.003,-0.032,101.0,102.0,102.0,13.4,1505.2,323.1,-0.8,1.8,2470.97,13.28,0.039,265.6
2022-08-07T00:40:03,42.805,6.029,-0.02,-0.008,-0.015,102.0,102.0,101.0,13.4,1505.2,326.7,-0.8,1.8,2470.95,13.28,0.021,248.2
2022-08-07T00:43:03,42.805,6.029,-0.052,-0.01,-0.044,103.0,102.0,102.0,13.4,1505.2,332.1,-0.8,1.8,2470.981,13.28,0.052,259.1
2022-08-07T00:46:03,42.805,6.029,-0.018,0.003,0.011,104.0,102.0,100.0,13.4,1505.2,328.5,-0.8,1.8,2470.979,13.28,0.018,279.5
2022-08-07T00:49:03,42.805,6.029,-0.04,-0.005,-0.015,104.0,103.0,101.0,13.3,1505.2,318.9,-0.7,1.8,2470.963,13.28,0.04,262.9
2022-08-07T00:52:03,42.805,6.029,-0.024,0.001,-0.041,104.0,102.0,101.0,13.4,1505.2,321.7,-0.7,1.8,2470.953,13.28,0.024,272.4
2022-08-07T00:55:03,42.805,6.029,-0.034,0.012,0.0,103.0,102.0,102.0,13.4,1505.2,322.0,-0.8,1.8,2470.974,13.28,0.036,289.4
2022-08-07T00:58:03,42.805,6.029,-0.01,0.009,0.004,103.0,101.0,101.0,13.4,1505.2,327.0,-0.8,1.8,2470.956,13.29,0.013,312.0
2022-08-07T01:01:03,42.805,6.029,-0.028,-0.011,-0.056,101.0,103.0,101.0,13.3,1505.2,334.7,-0.7,1.8,2470.952,13.28,0.03,248.6
2022-08-07T01:04:03,42.805,6.029,-0.024,0.004,-0.034,103.0,103.0,102.0,13.4,1505.2,328.5,-0.7,1.8,2470.943,13.29,0.024,279.5
2022-08-07T01:07:03,42.805,6.029,-0.043,0.015,-0.01,102.0,103.0,101.0,13.4,1505.2,321.3,-0.7,1.8,2470.983,13.28,0.045,289.2
2022-08-07T01:10:03,42.805,6.029,-0.038,0.0,-0.029,102.0,103.0,101.0,13.3,1505.2,323.6,-0.8,1.8,2470.942,13.29,0.038,270.0
2022-08-07T01:13:03,42.805,6.029,-0.019,0.009,-0.024,103.0,102.0,101.0,13.4,1505.2,333.4,-0.7,1.8,2470.959,13.29,0.021,295.3
2022-08-07T01:16:03,42.805,6.029,-0.045,0.014,-0.011,103.0,103.0,101.0,13.3,1505.2,328.1,-0.8,1.8,2470.978,13.29,0.047,287.3
2022-08-07T01:19:03,42.805,6.029,-0.05,0.001,-0.046,103.0,102.0,101.0,13.4,1505.2,328.1,-0.8,1.8,2470.994,13.29,0.05,271.1
2022-08-07T01:22:03,42.805,6.029,-0.044,-0.009,-0.019,103.0,102.0,101.0,13.3,1505.2,323.2,-0.8,1.8,2470.964,13.28,0.044,258.4
2022-08-07T01:25:03,42.805,6.029,-0.029,0.006,0.002,103.0,102.0,102.0,13.4,1505.2,323.2,-0.8,1.8,2470.969,13.29,0.029,281.7
2022-08-07T01:28:03,42.805,6.029,-0.029,0.013,0.001,103.0,102.0,101.0,13.4,1505.2,333.9,-0.8,1.8,2470.991,13.29,0.031,294.1
2022-08-07T01:31:03,42.805,6.029,-0.052,0.006,-0.042,102.0,102.0,101.0,13.3,1505.2,327.9,-0.7,1.8,2470.984,13.29,0.052,276.6
2022-08-07T01:34:03,42.805,6.029,-0.042,0.014,-0.037,102.0,102.0,101.0,13.3,1505.2,329.0,-0.7,1.8,2470.97,13.29,0.044,288.4
2022-08-07T01:37:03,42.805,6.029,-0.015,0.005,-0.059,102.0,103.0,101.0,13.4,1505.2,321.9,-0.8,1.8,2470.972,13.29,0.015,288.4
2022-08-07T01:40:03,42.805,6.029,-0.03,-0.008,-0.055,103.0,103.0,100.0,13.3,1505.2,326.4,-0.8,1.8,2470.959,13.29,0.031,255.1
2022-08-07T01:43:03,42.805,6.029,-0.026,0.009,-0.013,102.0,102.0,102.0,13.4,1505.2,331.5,-0.8,1.9,2470.978,13.29,0.027,289.1
2022-08-07T01:46:03,42.805,6.029,-0.061,0.003,-0.051,102.0,102.0,101.0,13.4,1505.2,324.7,-0.7,1.8,2470.983,13.29,0.061,272.8
2022-08-07T01:49:03,42.805,6.029,-0.026,-0.004,-0.016,104.0,103.0,100.0,13.4,1505.2,322.3,-0.8,1.8,2470.943,13.29,0.026,261.3
2022-08-07T01:52:03,42.805,6.029,-0.045,0.001,-0.039,103.0,101.0,102.0,13.4,1505.2,333.1,-0.8,1.8,2470.968,13.29,0.045,271.3
2022-08-07T01:55:03,42.805,6.029,-0.037,0.004,-0.06,102.0,101.0,102.0,13.4,1505.2,334.4,-0.8,1.9,2470.981,13.29,0.037,276.2
2022-08-07T01:58:03,42.805,6.029,-0.036,0.005,-0.067,102.0,102.0,101.0,13.4,1505.2,328.0,-0.8,1.8,2470.946,13.29,0.036,277.9
2022-08-07T02:04:03,42.805,6.029,-0.026,0.016,-0.047,103.0,102.0,102.0,13.4,1505.2,329.0,-0.8,1.8,2471.008,13.28,0.03,301.6
2022-08-07T02:07:03,42.805,6.029,-0.041,0.018,-0.042,102.0,103.0,101.0,13.4,1505.2,332.6,-0.8,1.8,2471.001,13.28,0.044,293.7
2022-08-07T02:10:03,42.805,6.029,-0.033,0.006,-0.005,102.0,102.0,101.0,13.3,1505.2,328.4,-0.7,1.8,2471.008,13.28,0.033,280.3
2022-08-07T02:13:03,42.805,6.029,-0.048,0.0,-0.049,102.0,102.0,101.0,13.4,1505.2,322.1,-0.8,1.8,2470.961,13.28,0.048,270.0
2022-08-07T02:16:03,42.805,6.029,-0.027,-0.02,-0.026,102.0,102.0,102.0,13.4,1505.2,323.9,-0.7,1.8,2470.969,13.28,0.033,233.5
2022-08-07T02:19:03,42.805,6.029,-0.041,-0.004,-0.02,102.0,102.0,101.0,13.4,1505.2,324.9,-0.8,1.8,2470.999,13.29,0.041,264.4
2022-08-07T02:22:03,42.805,6.029,-0.019,0.009,-0.028,103.0,102.0,101.0,13.4,1505.2,330.1,-0.8,1.8,2470.942,13.29,0.021,295.3
2022-08-07T02:25:03,42.805,6.029,-0.042,0.012,-0.028,103.0,103.0,101.0,13.3,1505.2,325.3,-0.8,1.8,2470.925,13.29,0.043,285.9
2022-08-07T02:28:03,42.805,6.029,-0.038,0.003,-0.016,103.0,103.0,101.0,13.4,1505.2,321.5,-0.7,1.8,2470.985,13.29,0.038,274.5
2022-08-07T02:31:03,42.805,6.029,-0.041,-0.013,-0.042,101.0,103.0,102.0,13.4,1505.2,327.0,-0.8,1.8,2470.962,13.29,0.043,252.4
2022-08-07T02:34:03,42.805,6.029,-0.037,0.004,-0.025,102.0,102.0,101.0,13.3,1505.2,329.4,-0.8,1.8,2470.961,13.29,0.037,276.2
2022-08-07T02:37:03,42.805,6.029,-0.03,0.019,-0.031,103.0,101.0,102.0,13.4,1505.2,328.4,-0.8,1.8,2470.943,13.29,0.035,302.3
2022-08-07T02:40:03,42.805,6.029,-0.028,-0.001,-0.056,101.0,102.0,101.0,13.4,1505.2,323.5,-0.8,1.8,2470.983,13.29,0.028,268.0
2022-08-07T02:43:03,42.805,6.029,-0.033,-0.003,-0.02,103.0,101.0,101.0,13.4,1505.2,322.4,-0.8,1.8,2470.929,13.29,0.033,264.8
2022-08-07T02:46:03,42.805,6.029,-0.039,0.005,-0.042,103.0,102.0,102.0,13.3,1505.2,328.6,-0.8,1.8,2470.958,13.29,0.039,277.3
2022-08-07T02:49:03,42.805,6.029,-0.041,0.021,-0.01,102.0,104.0,101.0,13.3,1505.2,325.7,-0.7,1.8,2470.96,13.29,0.046,297.1
2022-08-07T02:52:03,42.805,6.029,-0.043,-0.001,-0.032,103.0,102.0,101.0,13.4,1505.2,327.2,-0.7,1.8,2470.949,13.29,0.043,268.7
2022-08-07T02:55:03,42.805,6.029,-0.039,0.016,-0.045,104.0,103.0,103.0,13.4,1505.2,323.0,-0.7,1.8,2470.94,13.29,0.042,292.3
2022-08-07T02:58:03,42.805,6.029,-0.021,0.003,-0.017,103.0,100.0,101.0,13.4,1505.2,326.7,-0.8,1.8,2470.95,13.29,0.021,278.1
2022-08-07T03:04:03,42.805,6.029,-0.032,-0.006,-0.035,103.0,103.0,102.0,13.4,1505.2,325.2,-0.8,1.8,2470.994,13.28,0.032,259.4
2022-08-07T03:07:03,42.805,6.029,-0.031,-0.003,0.002,101.0,103.0,100.0,13.3,1505.2,320.3,-0.8,1.8,2470.977,13.28,0.031,264.5
2022-08-07T03:10:03,42.805,6.029,-0.042,0.002,0.0,103.0,104.0,102.0,13.4,1505.2,326.7,-0.8,1.8,2470.974,13.28,0.042,272.7
2022-08-07T03:13:03,42.805,6.029,-0.046,0.009,-0.032,102.0,102.0,102.0,13.4,1505.2,328.4,-0.7,1.8,2471.011,13.29,0.046,281.1
2022-08-07T03:16:03,42.805,6.029,-0.063,0.007,-0.054,103.0,103.0,101.0,13.4,1505.2,327.6,-0.8,1.8,2470.99,13.29,0.063,276.3
2022-08-07T03:19:03,42.805,6.029,-0.043,0.002,-0.048,104.0,103.0,100.0,13.4,1505.2,323.8,-0.8,1.8,2470.991,13.29,0.043,272.7
2022-08-07T03:22:03,42.805,6.029,-0.052,0.016,-0.038,103.0,101.0,101.0,13.3,1505.2,319.7,-0.8,1.8,2470.937,13.29,0.054,287.1
2022-08-07T03:25:03,42.805,6.029,-0.013,0.016,-0.02,104.0,102.0,101.0,13.4,1505.2,319.5,-0.8,1.8,2470.956,13.29,0.02,320.9
2022-08-07T03:28:03,42.805,6.029,-0.032,0.027,-0.02,101.0,104.0,100.0,13.4,1505.2,332.9,-0.7,1.8,2470.959,13.29,0.041,310.2
2022-08-07T03:31:03,42.805,6.029,-0.037,0.025,-0.02,103.0,103.0,100.0,13.4,1505.2,324.3,-0.8,1.8,2470.944,13.29,0.044,304.0
2022-08-07T03:34:03,42.805,6.029,-0.025,0.001,-0.006,102.0,102.0,101.0,13.3,1505.2,325.8,-0.8,1.8,2470.993,13.29,0.025,272.3
2022-08-07T03:37:03,42.805,6.029,-0.033,0.003,-0.018,104.0,100.0,101.0,13.3,1505.2,319.1,-0.7,1.8,2470.946,13.29,0.033,275.2
2022-08-07T03:40:03,42.805,6.029,-0.031,0.011,-0.028,102.0,102.0,101.0,13.3,1505.2,330.6,-0.8,1.8,2470.919,13.29,0.032,289.5
2022-08-07T03:43:03,42.805,6.029,-0.022,0.009,-0.013,104.0,102.0,101.0,13.4,1505.2,320.7,-0.8,1.8,2470.948,13.29,0.023,292.2
2022-08-07T03:46:03,42.805,6.029,-0.025,0.025,-0.003,102.0,103.0,101.0,13.4,1505.2,326.7,-0.8,1.9,2470.957,13.29,0.035,315.0
2022-08-07T03:49:03,42.805,6.029,-0.018,-0.001,-0.033,102.0,103.0,101.0,13.3,1505.2,329.5,-0.8,1.8,2470.952,13.29,0.018,266.8
2022-08-07T03:52:03,42.805,6.029,-0.045,0.014,-0.03,102.0,101.0,102.0,13.3,1505.2,320.5,-0.8,1.8,2470.903,13.29,0.047,287.3
2022-08-07T03:55:03,42.805,6.029,-0.023,0.014,-0.027,103.0,103.0,101.0,13.4,1505.2,327.1,-0.7,1.8,2470.952,13.29,0.026,301.3
2022-08-07T03:58:03,42.805,6.029,-0.035,0.008,-0.032,104.0,102.0,100.0,13.4,1505.2,328.2,-0.7,1.8,2470.957,13.29,0.035,282.9
2022-08-07T04:04:03,42.805,6.029,-0.053,0.011,-0.031,103.0,101.0,102.0,13.4,1505.2,323.4,-0.8,1.8,2470.981,13.28,0.054,281.7
2022-08-07T04:07:03,42.805,6.029,-0.045,0.012,-0.025,102.0,103.0,100.0,13.4,1505.2,320.6,-0.8,1.8,2470.979,13.28,0.046,284.9
2022-08-07T04:10:03,42.805,6.029,-0.047,-0.006,-0.028,102.0,103.0,101.0,13.4,1505.2,329.0,-0.7,1.8,2470.949,13.28,0.047,262.7
2022-08-07T04:13:03,42.805,6.029,-0.017,0.03,0.006,101.0,102.0,101.0,13.4,1505.2,324.0,-0.8,1.8,2470.957,13.29,0.034,330.5
2022-08-07T04:16:03,42.805,6.029,-0.032,0.03,-0.007,102.0,102.0,102.0,13.3,1505.2,332.9,-0.8,1.8,2470.953,13.29,0.043,313.1
2022-08-07T04:19:03,42.805,6.029,-0.044,0.013,-0.031,102.0,102.0,101.0,13.4,1505.2,320.8,-0.8,1.8,2470.938,13.29,0.045,286.5
2022-08-07T04:22:03,42.805,6.029,-0.024,0.015,-0.018,102.0,103.0,100.0,13.3,1505.2,323.5,-0.8,1.8,2470.974,13.29,0.028,302.0
2022-08-07T04:25:03,42.805,6.029,-0.017,0.011,-0.024,103.0,101.0,100.0,13.3,1505.2,331.5,-0.7,1.8,2470.965,13.29,0.02,302.9
2022-08-07T04:28:03,42.805,6.029,-0.007,0.004,-0.033,102.0,102.0,102.0,13.4,1505.2,322.5,-0.8,1.8,2470.944,13.29,0.008,299.7
2022-08-07T04:31:03,42.805,6.029,-0.03,0.018,-0.005,103.0,101.0,102.0,13.4,1505.2,327.4,-0.8,1.8,2470.947,13.29,0.034,301.0
2022-08-07T04:34:03,42.805,6.029,-0.039,0.011,-0.032,102.0,102.0,101.0,13.3,1505.2,325.4,-0.8,1.8,2470.941,13.29,0.04,285.7
2022-08-07T04:37:03,42.805,6.029,-0.031,0.008,-0.049,102.0,101.0,101.0,13.4,1505.2,321.7,-0.8,1.8,2470.935,13.29,0.032,284.5
2022-08-07T04:40:03,42.805,6.029,-0.024,-0.003,-0.013,101.0,104.0,102.0,13.3,1505.2,322.1,-0.8,1.8,2470.987,13.29,0.024,262.9
2022-08-07T04:43:03,42.805,6.029,-0.009,0.006,-0.025,103.0,101.0,101.0,13.4,1505.2,327.1,-0.7,1.9,2470.927,13.29,0.01,303.7
2022-08-07T04:46:03,42.805,6.029,-0.035,0.011,-0.028,101.0,104.0,99.0,13.4,1505.2,327.1,-0.7,1.8,2470.957,13.29,0.036,287.4
2022-08-07T04:49:03,42.805,6.029,-0.026,0.007,-0.038,102.0,104.0,101.0,13.4,1505.2,326.3,-0.8,1.8,2470.911,13.29,0.026,285.1
2022-08-07T04:52:03,42.805,6.029,-0.014,0.022,-0.012,104.0,103.0,99.0,13.4,1505.2,333.9,-0.8,1.8,2470.909,13.29,0.026,327.5
2022-08-07T04:55:03,42.805,6.029,-0.03,-0.004,-0.036,103.0,101.0,101.0,13.3,1505.2,320.5,-0.8,1.8,2470.899,13.29,0.03,262.4
2022-08-07T04:58:03,42.805,6.029,-0.027,0.003,-0.002,103.0,101.0,101.0,13.4,1505.2,318.7,-0.8,1.8,2470.921,13.29,0.027,276.3
2022-08-07T05:04:03,42.805,6.029,-0.026,0.009,0.0,103.0,102.0,101.0,13.3,1505.2,321.0,-0.8,1.8,2470.98,13.28,0.027,289.1
2022-08-07T05:07:03,42.805,6.029,-0.015,0.03,-0.043,102.0,102.0,100.0,13.3,1505.2,319.7,-0.8,1.8,2470.953,13.28,0.033,333.4
2022-08-07T05:10:03,42.805,6.029,-0.022,0.02,-0.031,102.0,101.0,102.0,13.4,1505.2,332.1,-0.8,1.8,2470.949,13.28,0.029,312.3
2022-08-07T05:13:03,42.805,6.029,-0.037,0.0,-0.02,103.0,101.0,100.0,13.3,1505.2,325.2,-0.8,1.8,2470.934,13.29,0.037,270.0
2022-08-07T05:16:03,42.805,6.029,-0.029,-0.011,-0.015,104.0,102.0,101.0,13.4,1505.2,333.1,-0.8,1.8,2470.931,13.29,0.031,249.2
2022-08-07T05:19:03,42.805,6.029,-0.051,0.033,-0.033,102.0,103.0,101.0,13.4,1505.2,328.3,-0.8,1.8,2470.97,13.29,0.06,302.9
2022-08-07T05:22:03,42.805,6.029,-0.015,0.02,0.021,103.0,102.0,101.0,13.3,1505.2,326.0,-0.7,1.8,2470.92,13.29,0.025,323.1
2022-08-07T05:25:03,42.805,6.029,-0.012,0.003,-0.013,101.0,102.0,102.0,13.3,1505.2,332.4,-0.7,1.8,2470.894,13.29,0.012,284.0
2022-08-07T05:28:03,42.805,6.029,-0.027,0.0,-0.027,102.0,102.0,101.0,13.4,1505.2,333.1,-0.8,1.8,2470.929,13.29,0.026,270.0
2022-08-07T05:31:03,42.805,6.029,-0.052,0.016,-0.021,102.0,102.0,102.0,13.3,1505.2,325.8,-0.8,1.8,2470.889,13.29,0.054,287.1
2022-08-07T05:34:03,42.805,6.029,-0.018,0.0,-0.033,102.0,103.0,101.0,13.4,1505.2,319.8,-0.7,1.8,2470.925,13.29,0.018,270.0
2022-08-07T05:37:03,42.805,6.029,-0.03,-0.002,-0.065,101.0,103.0,102.0,13.4,1505.2,333.4,-0.8,1.8,2470.916,13.29,0.03,266.2
2022-08-07T05:40:03,42.805,6.029,-0.009,0.013,-0.016,104.0,102.0,102.0,13.4,1505.2,321.3,-0.7,1.8,2470.91,13.29,0.015,325.3
2022-08-07T05:43:03,42.805,6.029,-0.02,0.015,0.0,103.0,102.0,101.0,13.3,1505.2,324.5,-0.8,1.8,2470.884,13.29,0.025,306.9
2022-08-07T05:46:03,42.805,6.029,-0.023,0.003,-0.028,103.0,103.0,101.0,13.4,1505.2,328.2,-0.8,1.8,2470.96,13.29,0.023,277.4
2022-08-07T05:49:03,42.805,6.029,-0.009,0.027,-0.006,102.0,103.0,100.0,13.3,1505.2,323.2,-0.7,1.8,2470.903,13.29,0.028,341.6
2022-08-07T05:52:03,42.805,6.029,-0.024,0.012,-0.022,102.0,102.0,100.0,13.4,1505.2,323.7,-0.8,1.8,2470.902,13.29,0.026,296.6
2022-08-07T05:55:03,42.805,6.029,-0.021,-0.008,-0.033,102.0,102.0,101.0,13.3,1505.2,329.7,-0.8,1.8,2470.895,13.29,0.022,249.1
2022-08-07T05:58:03,42.805,6.029,-0.032,0.004,-0.035,102.0,104.0,100.0,13.4,1505.2,318.5,-0.8,1.8,2470.915,13.29,0.032,277.1
2022-08-07T06:04:03,42.805,6.029,-0.043,0.019,-0.052,103.0,102.0,101.0,13.4,1505.2,328.2,-0.7,1.9,2470.918,13.28,0.047,293.8
2022-08-07T06:07:03,42.805,6.029,-0.026,0.001,-0.035,101.0,103.0,101.0,13.4,1505.2,324.8,-0.8,1.8,2470.94,13.28,0.026,272.2
2022-08-07T06:10:03,42.805,6.029,-0.03,0.012,-0.027,101.0,102.0,102.0,13.4,1505.2,329.0,-0.8,1.9,2470.949,13.29,0.032,291.8
2022-08-07T06:13:03,42.805,6.029,-0.035,0.009,-0.042,101.0,104.0,101.0,13.4,1505.2,318.8,-0.8,1.8,2470.923,13.29,0.036,284.4
2022-08-07T06:16:03,42.805,6.029,-0.028,-0.018,-0.038,101.0,103.0,102.0,13.3,1505.2,329.1,-0.8,1.8,2470.94,13.29,0.033,237.3
2022-08-07T06:19:03,42.805,6.029,-0.032,0.0,-0.014,103.0,102.0,101.0,13.3,1505.2,327.6,-0.7,1.8,2470.902,13.29,0.032,270.0
2022-08-07T06:22:03,42.805,6.029,-0.026,0.009,-0.005,102.0,102.0,101.0,13.4,1505.2,319.5,-0.8,1.9,2470.892,13.29,0.027,289.1
2022-08-07T06:25:03,42.805,6.029,-0.032,0.012,-0.018,103.0,102.0,100.0,13.4,1505.2,330.3,-0.7,1.8,2470.937,13.29,0.034,290.6
2022-08-07T06:28:03,42.805,6.029,0.007,0.009,-0.007,103.0,102.0,102.0,13.4,1505.2,324.7,-0.7,1.8,2470.899,13.29,0.011,37.9
2022-08-07T06:31:03,42.805,6.029,-0.04,0.0,-0.053,102.0,103.0,101.0,13.4,1505.2,323.1,-0.8,1.8,2470.891,13.29,0.04,270.0
2022-08-07T06:34:03,42.805,6.029,-0.014,0.0,-0.052,103.0,102.0,100.0,13.4,1505.2,327.6,-0.8,1.8,2470.918,13.29,0.014,270.0
2022-08-07T06:37:03,42.805,6.029,-0.023,0.012,-0.029,104.0,102.0,101.0,13.3,1505.2,325.3,-0.8,1.8,2470.885,13.29,0.025,297.6
2022-08-07T06:40:03,42.805,6.029,-0.035,-0.001,-0.053,102.0,101.0,101.0,13.4,1505.2,323.2,-0.7,1.8,2470.893,13.29,0.035,268.4
2022-08-07T06:43:03,42.805,6.029,-0.044,0.013,-0.024,103.0,102.0,101.0,13.3,1505.2,325.0,-0.7,1.8,2470.888,13.29,0.045,286.5
2022-08-07T06:46:03,42.805,6.029,-0.04,0.031,-0.016,102.0,104.0,102.0,13.4,1505.2,328.2,-0.8,1.8,2470.903,13.29,0.05,307.8
2022-08-07T06:49:03,42.805,6.029,-0.017,-0.005,-0.03,102.0,103.0,101.0,13.3,1505.2,325.8,-0.7,1.8,2470.867,13.29,0.017,253.6
2022-08-07T06:52:03,42.805,6.029,-0.024,0.001,-0.021,102.0,102.0,100.0,13.3,1505.2,323.2,-0.7,1.8,2470.845,13.29,0.024,272.4
2022-08-07T06:55:03,42.805,6.029,-0.031,0.006,-0.009,101.0,103.0,101.0,13.4,1505.2,323.1,-0.7,1.8,2470.857,13.29,0.031,281.0
2022-08-07T06:58:03,42.805,6.029,-0.012,-0.015,-0.041,103.0,101.0,101.0,13.4,1505.2,322.2,-0.7,1.8,2470.868,13.29,0.019,218.7
2022-08-07T07:04:03,42.805,6.029,-0.022,0.01,-0.025,103.0,102.0,101.0,13.4,1505.2,322.3,-0.8,1.8,2470.917,13.28,0.024,294.4
2022-08-07T07:07:03,42.805,6.029,-0.034,0.004,-0.006,102.0,103.0,101.0,13.4,1505.2,319.7,-0.8,1.8,2470.886,13.28,0.034,276.7
2022-08-07T07:10:03,42.805,6.029,-0.037,0.015,-0.051,102.0,102.0,101.0,13.3,1505.2,328.7,-0.8,1.8,2470.889,13.28,0.039,292.1
2022-08-07T07:13:03,42.805,6.029,-0.006,-0.003,-0.015,102.0,102.0,102.0,13.4,1505.2,331.0,-0.7,1.9,2470.915,13.29,0.006,243.4
2022-08-07T07:16:03,42.805,6.029,-0.022,-0.008,-0.043,102.0,102.0,100.0,13.3,1505.2,320.1,-0.7,1.8,2470.887,13.29,0.023,250.0
2022-08-07T07:19:03,42.805,6.029,-0.024,0.008,-0.036,102.0,102.0,101.0,13.4,1505.2,322.2,-0.7,1.8,2470.886,13.29,0.025,288.4
2022-08-07T07:22:03,42.805,6.029,0.003,0.002,0.004,103.0,102.0,101.0,13.4,1505.2,323.2,-0.8,1.8,2470.896,13.29,0.003,56.3
2022-08-07T07:25:03,42.805,6.029,-0.04,0.013,-0.019,102.0,103.0,101.0,13.4,1505.2,322.1,-0.8,1.8,2470.899,13.29,0.042,288.0
2022-08-07T07:28:03,42.805,6.029,-0.017,0.008,-0.006,103.0,102.0,101.0,13.4,1505.2,332.3,-0.8,1.8,2470.843,13.29,0.018,295.2
2022-08-07T07:31:03,42.805,6.029,-0.028,0.015,-0.01,103.0,102.0,101.0,13.4,1505.2,332.2,-0.8,1.8,2470.865,13.29,0.031,298.2
2022-08-07T07:34:03,42.805,6.029,-0.054,0.0,-0.04,103.0,101.0,102.0,13.4,1505.2,323.3,-0.8,1.8,2470.849,13.29,0.053,270.0
2022-08-07T07:37:03,42.805,6.029,-0.028,0.015,-0.036,102.0,102.0,101.0,13.3,1505.2,322.4,-0.8,1.8,2470.88,13.29,0.031,298.2
2022-08-07T07:40:03,42.805,6.029,-0.01,0.02,-0.033,102.0,103.0,101.0,13.4,1505.2,325.3,-0.8,1.8,2470.865,13.29,0.022,333.4
2022-08-07T07:43:03,42.805,6.029,-0.01,0.004,-0.042,102.0,102.0,101.0,13.4,1505.2,330.1,-0.8,1.8,2470.834,13.29,0.01,291.8
2022-08-07T07:46:03,42.805,6.029,-0.017,0.013,-0.017,103.0,102.0,101.0,13.4,1505.2,331.4,-0.8,1.8,2470.851,13.29,0.021,307.4
2022-08-07T07:49:03,42.805,6.029,-0.02,-0.006,-0.025,102.0,103.0,101.0,13.3,1505.2,331.2,-0.8,1.8,2470.818,13.29,0.02,253.3
2022-08-07T07:52:03,42.805,6.029,-0.029,0.004,0.0,102.0,102.0,101.0,13.3,1505.2,327.9,-0.8,1.8,2470.844,13.29,0.029,277.8
2022-08-07T07:55:03,42.805,6.029,-0.015,0.004,0.009,102.0,102.0,101.0,13.4,1505.2,322.1,-0.7,1.8,2470.853,13.29,0.015,284.9
2022-08-07T07:58:03,42.805,6.029,-0.025,0.004,-0.024,102.0,102.0,101.0,13.3,1505.2,329.2,-0.7,1.8,2470.851,13.29,0.025,279.1
2022-08-07T08:04:03,42.805,6.029,-0.025,-0.001,-0.037,103.0,102.0,101.0,13.4,1505.2,321.5,-0.7,1.9,2470.903,13.28,0.025,267.7
2022-08-07T08:07:03,42.805,6.029,-0.004,-0.005,-0.022,102.0,102.0,100.0,13.4,1505.2,324.7,-0.7,1.8,2470.909,13.28,0.006,218.7
2022-08-07T08:10:03,42.805,6.029,-0.007,-0.012,-0.034,103.0,101.0,102.0,13.4,1505.2,329.2,-0.8,1.8,2470.893,13.28,0.013,210.3
2022-08-07T08:13:03,42.805,6.029,-0.027,0.003,-0.043,102.0,104.0,101.0,13.4,1505.2,322.9,-0.8,1.8,2470.864,13.28,0.027,276.3
2022-08-07T08:16:03,42.805,6.029,-0.023,-0.004,-0.017,101.0,103.0,102.0,13.4,1505.2,322.9,-0.8,1.8,2470.855,13.29,0.023,260.1
2022-08-07T08:19:03,42.805,6.029,-0.037,-0.002,-0.011,103.0,102.0,101.0,13.4,1505.2,322.4,-0.8,1.8,2470.854,13.29,0.037,266.9
2022-08-07T08:22:03,42.805,6.029,-0.022,0.007,-0.015,102.0,102.0,101.0,13.4,1505.2,327.3,-0.8,1.8,2470.831,13.29,0.023,287.6
2022-08-07T08:25:03,42.805,6.029,-0.028,0.0,-0.026,102.0,104.0,101.0,13.4,1505.2,331.2,-0.7,1.8,2470.864,13.29,0.028,270.0
2022-08-07T08:28:03,42.805,6.029,-0.024,0.026,0.008,103.0,101.0,101.0,13.3,1505.2,328.4,-0.7,1.8,2470.844,13.29,0.035,317.3
2022-08-07T08:31:03,42.805,6.029,-0.026,-0.001,-0.039,104.0,103.0,100.0,13.4,1505.2,323.3,-0.8,1.8,2470.865,13.29,0.026,267.8
2022-08-07T08:34:03,42.805,6.029,-0.017,-0.005,-0.008,103.0,101.0,101.0,13.4,1505.2,325.9,-0.7,1.8,2470.821,13.29,0.017,253.6
2022-08-07T08:37:03,42.805,6.029,-0.042,-0.001,-0.021,101.0,101.0,101.0,13.4,1505.2,323.5,-0.7,1.8,2470.834,13.29,0.042,268.6
2022-08-07T08:40:03,42.805,6.029,-0.03,0.004,-0.042,101.0,102.0,100.0,13.3,1505.2,324.2,-0.8,1.9,2470.867,13.29,0.03,277.6
2022-08-07T08:43:03,42.805,6.029,-0.03,0.002,-0.032,103.0,103.0,101.0,13.3,1505.2,321.8,-0.8,1.8,2470.855,13.29,0.03,273.8
2022-08-07T08:46:03,42.805,6.029,-0.039,-0.002,-0.043,102.0,102.0,101.0,13.3,1505.2,327.0,-0.8,1.8,2470.829,13.29,0.039,267.1
2022-08-07T08:49:03,42.805,6.029,-0.037,0.004,-0.034,102.0,103.0,102.0,13.3,1505.2,320.3,-0.7,1.8,2470.798,13.29,0.037,276.2
2022-08-07T08:52:03,42.805,6.029,-0.032,-0.007,-0.03,102.0,103.0,100.0,13.4,1505.2,333.4,-0.7,1.8,2470.84,13.29,0.032,257.7
2022-08-07T08:55:03,42.805,6.029,-0.023,-0.005,-0.015,102.0,102.0,101.0,13.4,1505.2,325.0,-0.7,1.8,2470.86,13.29,0.023,257.7
2022-08-07T08:58:03,42.805,6.029,-0.014,0.006,-0.031,102.0,104.0,101.0,13.4,1505.2,332.1,-0.8,1.8,2470.834,13.29,0.015,293.2
2022-08-07T09:01:03,42.805,6.029,-0.024,0.004,-0.039,104.0,102.0,102.0,13.3,1505.2,330.6,-0.7,1.8,2470.811,13.29,0.024,279.5
2022-08-07T09:04:03,42.805,6.029,-0.018,-0.012,-0.043,103.0,103.0,102.0,13.4,1505.2,330.7,-0.7,1.8,2470.827,13.29,0.021,236.3
2022-08-07T09:07:03,42.805,6.029,-0.008,-0.013,-0.026,101.0,103.0,101.0,13.4,1505.2,321.4,-0.8,1.8,2470.845,13.29,0.015,211.6
2022-08-07T09:10:03,42.805,6.029,-0.016,-0.013,-0.025,102.0,103.0,101.0,13.4,1505.2,321.0,-0.8,1.8,2470.838,13.29,0.02,230.9
2022-08-07T09:13:03,42.805,6.029,-0.018,0.011,-0.019,102.0,103.0,101.0,13.3,1505.2,320.2,-0.8,1.8,2470.81,13.29,0.021,301.4
2022-08-07T09:16:03,42.805,6.029,-0.017,0.01,-0.007,102.0,102.0,101.0,13.3,1505.2,328.5,-0.8,1.8,2470.836,13.29,0.019,300.5
2022-08-07T09:19:03,42.805,6.029,-0.038,0.012,0.014,101.0,101.0,103.0,13.4,1505.2,329.4,-0.8,1.8,2470.822,13.29,0.039,287.5
2022-08-07T09:22:03,42.805,6.029,-0.038,0.005,-0.026,102.0,103.0,101.0,13.4,1505.2,321.4,-0.8,1.8,2470.827,13.29,0.038,277.5
2022-08-07T09:25:03,42.805,6.029,-0.041,-0.002,-0.054,103.0,102.0,101.0,13.4,1505.2,330.9,-0.7,1.8,2470.851,13.29,0.041,267.2
2022-08-07T09:28:03,42.805,6.029,-0.01,0.004,-0.067,103.0,103.0,101.0,13.3,1505.2,332.1,-0.8,1.8,2470.851,13.29,0.01,291.8
2022-08-07T09:31:03,42.805,6.029,-0.036,0.005,0.015,103.0,102.0,101.0,13.3,1505.2,325.1,-0.8,1.8,2470.816,13.29,0.036,277.9
2022-08-07T09:34:03,42.805,6.029,-0.023,0.002,-0.031,103.0,102.0,101.0,13.3,1505.2,323.6,-0.8,1.8,2470.835,13.29,0.023,275.0
2022-08-07T09:37:03,42.805,6.029,-0.007,0.0,-0.012,103.0,102.0,101.0,13.4,1505.2,330.3,-0.8,1.8,2470.867,13.29,0.007,270.0
2022-08-07T09:40:03,42.805,6.029,0.004,-0.011,-0.021,103.0,102.0,101.0,13.4,1505.2,325.8,-0.8,1.8,2470.875,13.29,0.011,160.0
2022-08-07T09:43:03,42.805,6.029,-0.018,0.014,-0.017,102.0,101.0,101.0,13.3,1505.2,327.4,-0.7,1.8,2470.85,13.29,0.022,307.9
2022-08-07T09:46:03,42.805,6.029,-0.004,-0.013,-0.005,103.0,103.0,101.0,13.4,1505.2,328.8,-0.7,1.8,2470.836,13.29,0.013,197.1